Location: Peebles
(55.6412°N, 3.1714°W)
Time: 07:56:12
(UTC+00:00)

CUTE-I - Visible Passes

Search period start: 30 November 2022 00:00
Search period end: 10 December 2022 00:00
Orbit: 810 x 823 km, 98.7° (Epoch: 29 November)

Date Brightness Start Highest point End Pass type
(mag) Time Alt. Az. Time Alt. Az. Time Alt. Az.
30 Nov ? 05:40:18 10° NE 05:44:47 26° E 05:49:14 10° SSE visible
30 Nov ? 07:19:55 10° NNE 07:25:16 68° WNW 07:30:36 10° SSW visible
30 Nov ? 17:09:11 10° SSE 17:14:30 80° ENE 17:19:53 10° NNW visible
30 Nov ? 18:51:07 10° SW 18:55:10 22° W 18:59:15 10° NW visible
01 Dec ? 05:19:01 10° NE 05:22:44 19° E 05:26:27 10° SE visible
01 Dec ? 06:58:07 10° NNE 07:03:33 88° ESE 07:08:56 10° SSW visible
01 Dec ? 16:47:35 10° SE 16:52:48 58° ENE 16:58:03 10° N visible
01 Dec ? 18:28:30 10° SSW 18:33:09 30° W 18:37:52 10° NNW visible
02 Dec ? 04:58:11 10° NE 05:00:37 13° E 05:03:02 10° ESE visible
02 Dec ? 06:36:23 10° NNE 06:41:44 63° ESE 06:47:04 10° S visible
02 Dec ? 16:26:10 10° SE 16:31:09 42° ENE 16:36:10 10° N visible
02 Dec ? 18:06:10 10° S 18:11:12 43° W 18:16:19 10° NNW visible
03 Dec ? 06:14:42 10° NNE 06:19:52 45° E 06:25:01 10° S visible
03 Dec ? 17:44:04 10° S 17:49:19 60° WSW 17:54:39 10° NNW visible
03 Dec ? 19:28:26 10° WSW 19:30:31 12° W 19:32:36 10° WNW visible
04 Dec ? 05:53:08 10° NNE 05:57:57 32° E 06:02:43 10° SSE visible
04 Dec ? 07:33:00 10° N 07:38:15 56° WNW 07:43:30 10° SW visible
04 Dec ? 17:22:11 10° SSE 17:27:31 84° WSW 17:32:55 10° NNW visible
04 Dec ? 19:04:51 10° SW 19:08:23 18° W 19:11:56 10° NW visible
05 Dec ? 05:31:43 10° NE 05:35:56 23° E 05:40:09 10° SE visible
05 Dec ? 07:11:10 10° NNE 07:16:33 77° WNW 07:21:55 10° SSW visible
05 Dec ? 17:00:29 10° SSE 17:05:47 71° ENE 17:11:08 10° NNW visible
05 Dec ? 18:42:00 10° SW 18:46:19 25° W 18:50:41 10° NW visible
06 Dec ? 05:10:34 10° NE 05:13:52 16° E 05:17:10 10° ESE visible
06 Dec ? 06:49:22 10° NNE 06:54:47 78° ESE 07:00:11 10° SSW visible
06 Dec ? 16:38:57 10° SE 16:44:06 51° ENE 16:49:16 10° N visible
06 Dec ? 18:19:29 10° SSW 18:24:20 35° W 18:29:14 10° NNW visible
07 Dec ? 04:50:13 10° ENE 04:51:43 11° E 04:53:12 10° E visible
07 Dec ? 06:27:40 10° NNE 06:32:58 55° E 06:38:15 10° S visible
07 Dec ? 17:57:15 10° S 18:02:24 49° W 18:07:38 10° NNW visible
08 Dec ? 06:06:02 10° NNE 06:11:05 39° E 06:16:06 10° SSE visible
08 Dec ? 17:35:15 10° S 17:40:34 69° WSW 17:45:57 10° NNW visible
08 Dec ? 19:18:48 10° WSW 19:21:37 14° W 19:24:26 10° NW visible
09 Dec ? 05:44:30 10° NNE 05:49:07 28° E 05:53:42 10° SSE visible
09 Dec ? 07:24:13 10° NNE 07:29:33 64° WNW 07:34:51 10° SSW visible
09 Dec ? 17:13:26 10° SSE 17:18:46 85° ENE 17:24:11 10° NNW visible
09 Dec ? 18:55:36 10° SW 18:59:30 20° W 19:03:26 10° NW visible
